[[{"header":{"parameterUnit":"m.s-1","parameterCategory":2,"la1":30.2992,"la2":30.254,"lo1":-89.0895,"lo2":-89.0443,"dy":0.0025,"dx":0.0025,"nx":19,"ny":19,"refTime":"2026-04-01T03:00:00:Z","depth":"0","parameterNumber":2,"parameterNumberName":"U-component_of_CURRENTS"},"data":[0,0,0,-0.1282,-0.1282,-0.126,-0.126,-0.1223,-0.1223,0,0,0,0,0,0,0,0,0,0,0,-0.129,-0.129,-0.1282,-0.1282,-0.126,-0.126,-0.1223,-0.1223,0,0,0,0,0,0,0,0,0,0,0,-0.129,-0.129,-0.129,-0.1282,-0.126,-0.126,-0.1223,-0.1241,0,0,0,0,0,0,0,0,0,0,-0.1263,-0.1284,-0.129,-0.129,-0.1281,-0.126,-0.126,-0.1242,-0.124,-0.1231,0,-0.123,0,-0.1226,-0.122,-0.122,0,0,0,-0.1279,-0.1286,-0.1269,-0.129,-0.1281,-0.126,-0.1269,-0.1241,-0.1239,-0.1228,-0.1229,-0.1228,-0.1225,-0.122,-0.122,-0.1231,-0.1231,0,0,-0.1281,-0.1296,-0.1271,-0.1268,-0.1277,-0.127,-0.1268,-0.124,-0.1245,-0.1229,-0.1227,-0.1224,-0.122,-0.122,-0.1231,-0.1231,0,0,0,-0.1286,-0.1297,-0.1281,-0.1269,-0.1266,-0.1269,-0.1268,-0.1246,-0.1238,-0.1226,-0.1224,-0.122,-0.1219,-0.123,-0.1231,-0.1296,0,0,0,-0.1286,-0.1299,-0.1282,-0.1292,-0.1267,-0.126,-0.1275,-0.124,-0.1236,-0.1224,-0.122,-0.1219,-0.123,-0.1231,-0.1293,-0.1324,0,0,0,-0.1291,-0.13,-0.1296,-0.1292,-0.1282,-0.126,-0.1251,-0.1239,-0.1235,-0.122,-0.1219,-0.1229,-0.123,-0.1291,-0.1319,-0.128,0,0,0,-0.1309,-0.1334,-0.1296,-0.1329,-0.1283,-0.1287,-0.1251,-0.1261,-0.1256,-0.122,-0.123,-0.1231,-0.129,-0.1317,-0.1278,-0.1071,-0.1061,0,0,-0.1355,-0.134,-0.1361,-0.1327,-0.1335,-0.129,-0.1319,-0.13,-0.1264,-0.1237,-0.1237,-0.1294,-0.1319,-0.1279,-0.1125,-0.1113,0,0,0,-0.1386,-0.1384,-0.1388,-0.1379,-0.1369,-0.1359,-0.1331,-0.1333,-0.1323,-0.1264,-0.1295,-0.1309,-0.1281,-0.1153,-0.1144,-0.1088,-0.1235,-0.1235,-0.1235,-0.1414,-0.1412,-0.1425,-0.1409,-0.1416,-0.1408,-0.1424,-0.1411,-0.1366,-0.1381,-0.1363,-0.1381,-0.1247,-0.1238,-0.1185,-0.1362,-0.1362,-0.1362,-0.1362,-0.1428,-0.1402,-0.1425,-0.1432,-0.143,-0.144,-0.1478,-0.1476,-0.1469,-0.1442,-0.141,-0.123,-0.1231,-0.1178,-0.1367,-0.1366,-0.1365,-0.1365,-0.1365,-0.1381,-0.1363,-0.1392,-0.1396,-0.1413,-0.1435,-0.1425,-0.1491,-0.1505,-0.1512,-0.1278,-0.1274,-0.1221,-0.145,-0.145,-0.1449,-0.1449,-0.1449,-0.1449,-0.1283,-0.1316,-0.1302,-0.1339,-0.1313,-0.1319,-0.1378,-0.1358,-0.1327,-0.1326,-0.1323,-0.1208,-0.1406,-0.1394,-0.1449,-0.1449,-0.1449,-0.1449,-0.1449,-0.1141,-0.119,-0.1168,-0.1149,-0.1102,-0.1026,-0.1114,-0.1051,-0.1067,-0.1013,-0.1026,-0.1206,-0.1149,-0.1152,-0.1133,-0.1118,-0.1118,-0.1118,-0.1118,-0.1028,-0.106,-0.1005,-0.0945,-0.0867,-0.0865,-0.0689,-0.0706,-0.0769,-0.0777,-0.0867,-0.0811,-0.0827,-0.0751,-0.0764,-0.0737,-0.0621,-0.0621,-0.0621,-0.0906,-0.0931,-0.0844,-0.0843,-0.074,-0.0646,-0.05,-0.0454,-0.0516,-0.0607,-0.0841,-0.0861,-0.0794,-0.0822,-0.0713,-0.0736,-0.0695,0,0]},{"header":{"parameterUnit":"m.s-1","parameterCategory":2,"la1":30.2992,"la2":30.254,"lo1":-89.0895,"lo2":-89.0443,"dy":0.0025,"dx":0.0025,"nx":19,"ny":19,"refTime":"2026-04-01T03:00:00:Z","depth":"0","parameterNumber":3,"parameterNumberName":"V-component_of_CURRENTS"},"data":[0,0,0,-0.0062,-0.0062,-0.0031,-0.0031,0.0018,0.0018,0,0,0,0,0,0,0,0,0,0,0,-0.0074,-0.0074,-0.0062,-0.0062,-0.0031,-0.0031,0.0018,0.0018,0,0,0,0,0,0,0,0,0,0,0,-0.0074,-0.0074,-0.0074,-0.0062,-0.0031,-0.0031,0.0018,-0.0006,0,0,0,0,0,0,0,0,0,0,-0.0036,-0.0047,-0.0074,-0.0074,-0.0061,-0.0031,-0.0031,-0.0007,-0.0005,0.0005,0,0.0003,0,0.001,0.0021,0.0021,0,0,0,-0.0055,-0.0049,-0.0047,-0.0074,-0.0061,-0.0031,-0.0043,-0.0006,-0.0003,0.0008,0.0004,0.0006,0.0011,0.0021,0.0022,0.0024,0.0023,0,0,-0.0056,-0.006,-0.0049,-0.0045,-0.0061,-0.0044,-0.0042,-0.0004,-0.0,0.0004,0.0007,0.0012,0.0022,0.0022,0.0024,0.0024,0,0,0,-0.0066,-0.0062,-0.006,-0.0047,-0.0043,-0.0043,-0.0041,-0.0002,-0.0003,0.0008,0.0012,0.0022,0.0023,0.0024,0.0024,-0.0014,0,0,0,-0.0067,-0.0068,-0.0061,-0.0062,-0.0044,-0.0022,-0.004,-0.0006,-0.0001,0.0012,0.0022,0.0023,0.0025,0.0024,-0.0013,-0.0031,0,0,0,-0.0074,-0.0068,-0.0069,-0.0063,-0.0053,-0.0023,-0.0022,-0.0005,0.0001,0.0021,0.0023,0.0025,0.0024,-0.0011,-0.0028,0.0002,0,0,0,-0.0074,-0.009,-0.0069,-0.0086,-0.0053,-0.0062,-0.0022,-0.0014,-0.0001,0.0022,0.0025,0.0024,-0.0011,-0.0027,0.0003,0.0099,0.0103,0,0,-0.0098,-0.0093,-0.0105,-0.0086,-0.0113,-0.0065,-0.0078,-0.0038,-0.0008,0.0015,0.0015,-0.0013,-0.0028,0.0002,0.0058,0.0063,0,0,0,-0.0117,-0.0129,-0.0132,-0.014,-0.0133,-0.0121,-0.0082,-0.0059,-0.0031,-0.0004,-0.0017,-0.0025,-0.0004,0.0055,0.0059,0.0173,0.0021,0.0021,0.0021,-0.0146,-0.0154,-0.0186,-0.0194,-0.0191,-0.0157,-0.0138,-0.01,-0.0067,-0.006,-0.0059,-0.0068,-0.0007,-0.0003,0.0112,-0.0061,-0.0061,-0.0061,-0.0062,-0.0198,-0.0216,-0.0231,-0.0265,-0.0249,-0.0247,-0.0194,-0.0158,-0.0111,-0.0096,-0.0073,0.0007,-0.0,0.012,-0.0064,-0.0064,-0.0063,-0.0063,-0.0063,-0.0214,-0.0226,-0.0257,-0.0308,-0.032,-0.0294,-0.0262,-0.0216,-0.0149,-0.0133,-0.0021,-0.0019,0.0094,-0.0105,-0.0105,-0.0105,-0.0105,-0.0105,-0.0105,-0.0207,-0.0245,-0.0299,-0.0347,-0.0368,-0.036,-0.0294,-0.0235,-0.0118,-0.0053,-0.0051,0.011,-0.008,-0.0071,-0.0104,-0.0104,-0.0104,-0.0104,-0.0104,-0.0218,-0.0245,-0.0327,-0.0368,-0.041,-0.0377,-0.0316,-0.014,-0.0066,0.0017,0.0204,0.0012,0.0044,0.0043,0.0056,0.0057,0.0057,0.0057,0.0057,-0.0219,-0.0241,-0.0348,-0.0408,-0.0426,-0.0381,-0.0206,0.0002,0.0231,0.0351,0.0332,0.0369,0.0357,0.041,0.04,0.0421,0.0515,0.0515,0.0516,-0.0234,-0.0273,-0.0339,-0.0412,-0.0432,-0.0355,-0.0148,0.0233,0.0532,0.0542,0.047,0.045,0.0508,0.0481,0.0564,0.0541,0.0576,0,0]}],[{"header":{"parameterUnit":"m.s-1","parameterCategory":2,"la1":30.2992,"la2":30.254,"lo1":-89.0895,"lo2":-89.0443,"dy":0.0025,"dx":0.0025,"nx":19,"ny":19,"refTime":"2026-04-01T03:00:00:Z","depth":"2","parameterNumber":2,"parameterNumberName":"U-component_of_CURRENTS"},"data":[0,0,0,-0.1029,-0.1029,-0.1022,-0.1022,-0.0973,-0.0973,0,0,0,0,0,0,0,0,0,0,0,-0.1034,-0.1034,-0.1029,-0.1029,-0.1022,-0.1022,-0.0973,-0.0973,0,0,0,0,0,0,0,0,0,0,0,-0.1034,-0.1034,-0.1034,-0.1029,-0.1022,-0.1022,-0.0973,-0.0987,0,0,0,0,0,0,0,0,0,0,-0.0999,-0.1022,-0.1034,-0.1034,-0.1029,-0.1022,-0.1022,-0.0989,-0.0987,-0.0966,0,-0.0971,0,-0.097,-0.0969,-0.0969,0,0,0,-0.1025,-0.1024,-0.1011,-0.1034,-0.1029,-0.1022,-0.1024,-0.0988,-0.0985,-0.0963,-0.0971,-0.0969,-0.097,-0.0968,-0.0968,-0.1002,-0.1003,0,0,-0.1025,-0.104,-0.1013,-0.101,-0.1034,-0.1024,-0.1024,-0.0987,-0.0993,-0.097,-0.0968,-0.0969,-0.0968,-0.0968,-0.1002,-0.1003,0,0,0,-0.1029,-0.104,-0.1029,-0.1011,-0.1013,-0.1024,-0.1024,-0.0994,-0.0988,-0.0968,-0.0968,-0.0968,-0.0967,-0.1001,-0.1002,-0.107,0,0,0,-0.1029,-0.1043,-0.103,-0.1039,-0.1014,-0.1012,-0.1032,-0.0991,-0.0987,-0.0969,-0.0968,-0.0967,-0.1,-0.1001,-0.1066,-0.1098,0,0,0,-0.1033,-0.1043,-0.1042,-0.104,-0.1038,-0.1013,-0.1005,-0.099,-0.0987,-0.0969,-0.0966,-0.0999,-0.1001,-0.1063,-0.1092,-0.1053,0,0,0,-0.1047,-0.1072,-0.1043,-0.1059,-0.1038,-0.1054,-0.1005,-0.101,-0.1001,-0.0967,-0.1,-0.1002,-0.1061,-0.1088,-0.1051,-0.0818,-0.0809,0,0,-0.1089,-0.1078,-0.1083,-0.1056,-0.1078,-0.1055,-0.1098,-0.1058,-0.1023,-0.1006,-0.1007,-0.1067,-0.1092,-0.1052,-0.0928,-0.0915,0,0,0,-0.1101,-0.1105,-0.1101,-0.1107,-0.1106,-0.1128,-0.1109,-0.1107,-0.1103,-0.1027,-0.1087,-0.1101,-0.1073,-0.0929,-0.092,-0.1011,-0.1011,-0.1011,-0.101,-0.114,-0.1138,-0.1159,-0.1161,-0.1177,-0.1192,-0.1211,-0.1212,-0.1159,-0.1183,-0.117,-0.1211,-0.1062,-0.1052,-0.1186,-0.1186,-0.1186,-0.1186,-0.1187,-0.1179,-0.1161,-0.1201,-0.122,-0.1243,-0.1277,-0.1308,-0.1297,-0.1299,-0.127,-0.1237,-0.1028,-0.1045,-0.1192,-0.1191,-0.119,-0.119,-0.1189,-0.1189,-0.1147,-0.1144,-0.1186,-0.1233,-0.127,-0.1289,-0.1274,-0.1335,-0.1344,-0.1353,-0.1101,-0.1096,-0.1208,-0.1291,-0.1291,-0.1291,-0.1291,-0.1291,-0.1291,-0.1073,-0.1129,-0.1141,-0.1206,-0.1183,-0.1189,-0.1239,-0.1211,-0.1164,-0.1155,-0.1151,-0.1244,-0.1241,-0.1213,-0.1291,-0.1291,-0.1291,-0.1291,-0.1291,-0.0959,-0.1011,-0.1022,-0.1014,-0.0983,-0.0915,-0.0988,-0.0903,-0.0904,-0.0837,-0.1018,-0.1024,-0.0962,-0.0966,-0.093,-0.0931,-0.0931,-0.0931,-0.0931,-0.0851,-0.0892,-0.0875,-0.0825,-0.0755,-0.076,-0.0585,-0.0565,-0.0642,-0.0683,-0.0694,-0.0636,-0.0653,-0.0572,-0.0585,-0.0542,-0.0442,-0.0441,-0.0441,-0.0751,-0.078,-0.0711,-0.0724,-0.063,-0.0556,-0.0422,-0.0324,-0.0324,-0.0432,-0.0718,-0.0877,-0.0818,-0.0836,-0.0732,-0.0745,-0.0683,0,0]},{"header":{"parameterUnit":"m.s-1","parameterCategory":2,"la1":30.2992,"la2":30.254,"lo1":-89.0895,"lo2":-89.0443,"dy":0.0025,"dx":0.0025,"nx":19,"ny":19,"refTime":"2026-04-01T03:00:00:Z","depth":"2","parameterNumber":3,"parameterNumberName":"V-component_of_CURRENTS"},"data":[0,0,0,-0.0229,-0.0228,-0.0199,-0.0199,-0.0153,-0.0153,0,0,0,0,0,0,0,0,0,0,0,-0.024,-0.024,-0.0229,-0.0228,-0.0199,-0.0199,-0.0153,-0.0153,0,0,0,0,0,0,0,0,0,0,0,-0.024,-0.024,-0.024,-0.0228,-0.0199,-0.0199,-0.0153,-0.0176,0,0,0,0,0,0,0,0,0,0,-0.0205,-0.0212,-0.024,-0.024,-0.0228,-0.0199,-0.0199,-0.0177,-0.0175,-0.0166,0,-0.0166,0,-0.016,-0.015,-0.015,0,0,0,-0.0223,-0.0214,-0.0214,-0.024,-0.0228,-0.0199,-0.0211,-0.0176,-0.0173,-0.0163,-0.0165,-0.0164,-0.0159,-0.015,-0.015,-0.0106,-0.0105,0,0,-0.0225,-0.0226,-0.0216,-0.0212,-0.0226,-0.0212,-0.021,-0.0174,-0.0169,-0.0165,-0.0162,-0.0158,-0.015,-0.0149,-0.0106,-0.0106,0,0,0,-0.0233,-0.0227,-0.0227,-0.0214,-0.021,-0.0211,-0.0209,-0.017,-0.0173,-0.0162,-0.0158,-0.0149,-0.0149,-0.0106,-0.0106,-0.0139,0,0,0,-0.0234,-0.0232,-0.0228,-0.0227,-0.0211,-0.0189,-0.0206,-0.0175,-0.0171,-0.0158,-0.0149,-0.0148,-0.0106,-0.0106,-0.0139,-0.0158,0,0,0,-0.0241,-0.0232,-0.0233,-0.0227,-0.0217,-0.019,-0.0189,-0.0174,-0.0169,-0.015,-0.0148,-0.0106,-0.0106,-0.0138,-0.0156,-0.0116,0,0,0,-0.0238,-0.0247,-0.0233,-0.0244,-0.0218,-0.0213,-0.019,-0.0182,-0.0169,-0.0149,-0.0106,-0.0106,-0.0138,-0.0156,-0.0116,-0.0034,-0.0026,0,0,-0.0252,-0.0248,-0.0258,-0.0245,-0.026,-0.0216,-0.0207,-0.0183,-0.0156,-0.0117,-0.0116,-0.0139,-0.0156,-0.0116,-0.0009,-0.0003,0,0,0,-0.0265,-0.0273,-0.0277,-0.0277,-0.0266,-0.0241,-0.0204,-0.0183,-0.0148,-0.0147,-0.0121,-0.013,-0.0104,-0.0054,-0.0048,-0.0104,-0.0104,-0.0104,-0.0104,-0.0268,-0.0278,-0.03,-0.0303,-0.0291,-0.0251,-0.0228,-0.0183,-0.0159,-0.0144,-0.0144,-0.012,-0.0067,-0.0062,-0.0125,-0.0126,-0.0126,-0.0126,-0.0126,-0.03,-0.0315,-0.0319,-0.0346,-0.0317,-0.0296,-0.0238,-0.0213,-0.0156,-0.0151,-0.0122,-0.0076,-0.0058,-0.0128,-0.0128,-0.0127,-0.0127,-0.0127,-0.0127,-0.0304,-0.0317,-0.0339,-0.0373,-0.0365,-0.033,-0.029,-0.0248,-0.0186,-0.0168,-0.0064,-0.0062,-0.0133,-0.0136,-0.0136,-0.0135,-0.0135,-0.0135,-0.0135,-0.0298,-0.0326,-0.0374,-0.0404,-0.0416,-0.0395,-0.032,-0.0258,-0.0144,-0.0086,-0.0084,-0.0122,-0.0122,-0.0131,-0.0134,-0.0134,-0.0134,-0.0134,-0.0135,-0.0314,-0.0337,-0.0411,-0.0443,-0.0463,-0.0419,-0.0341,-0.0159,-0.0083,-0.0002,-0.0017,-0.002,0.0008,0.0005,0.0,0.0032,0.0032,0.0032,0.0032,-0.0322,-0.034,-0.0441,-0.0491,-0.049,-0.0428,-0.0261,-0.0072,0.0063,0.0114,0.011,0.0116,0.0109,0.0142,0.0136,0.0134,0.02,0.02,0.02,-0.0344,-0.0379,-0.0443,-0.0503,-0.05,-0.041,-0.0234,0.0012,0.0187,0.0202,0.0094,0.0052,0.0051,0.0043,0.0087,0.008,0.0073,0,0]}],[{"header":{"parameterUnit":"m.s-1","parameterCategory":2,"la1":30.2992,"la2":30.254,"lo1":-89.0895,"lo2":-89.0443,"dy":0.0025,"dx":0.0025,"nx":19,"ny":19,"refTime":"2026-04-01T03:00:00:Z","depth":"4","parameterNumber":2,"parameterNumberName":"U-component_of_CURRENTS"},"data":[0,0,0,0.0028,0.0026,0.0018,0.0018,0.0129,0.013,0,0,0,0,0,0,0,0,0,0,0,0.0041,0.004,0.0028,0.0026,0.0018,0.0018,0.0129,0.013,0,0,0,0,0,0,0,0,0,0,0,0.0041,0.004,0.0039,0.0026,0.0018,0.0018,0.0129,0.0112,0,0,0,0,0,0,0,0,0,0,0.0109,0.0115,0.004,0.0039,0.0026,0.0018,0.0018,0.0111,0.0114,0.0158,0,0.0138,0,0.0121,0.0138,0.0138,0,0,0,0.0058,0.0113,0.0079,0.0039,0.0025,0.0017,0.003,0.0112,0.0115,0.0162,0.0139,0.0142,0.0122,0.0138,0.0139,0.0167,0.0167,0,0,0.0058,0.0078,0.0076,0.008,0.0001,0.003,0.003,0.0113,0.0128,0.0139,0.0144,0.0124,0.0139,0.014,0.0168,0.0167,0,0,0,0.0038,0.0079,0.0042,0.0077,0.0056,0.0029,0.0029,0.0126,0.0103,0.0145,0.0126,0.014,0.0141,0.0168,0.0167,-0.002,0,0,0,0.004,0.0064,0.0042,0.006,0.0053,0.0079,0.004,0.0098,0.0106,0.0125,0.014,0.0142,0.0169,0.0168,-0.0014,-0.0054,0,0,0,0.0045,0.0066,0.005,0.006,0.0036,0.0076,0.0061,0.0099,0.0094,0.0138,0.0142,0.0169,0.0168,-0.0008,-0.0045,-0.0048,0,0,0,0.0088,0.0061,0.0051,0.0027,0.0036,0.0023,0.006,0.008,0.0114,0.014,0.0169,0.0167,-0.0006,-0.004,-0.0044,0.0044,0,0,0,0.0072,0.006,0.0043,0.0032,0.0001,0.0027,-0.0002,0.0055,0.011,0.0157,0.0157,-0.0016,-0.0045,-0.0047,-0.0028,0,0,0,0,0.005,0.003,0.0025,0.0003,-0.0002,-0.0038,0.0011,0.0005,-0.0004,0.0115,0.0013,0.0002,0.0005,0.007,0.0161,0.0162,0.0162,0.0162,0.0162,0.0081,0.0043,0.0015,-0.0035,-0.0058,-0.0071,-0.0102,-0.0101,-0.0048,-0.0099,-0.0133,-0.0232,-0.0174,-0.0129,-0.013,-0.0131,-0.0132,-0.0132,-0.0133,0.0048,0.0026,-0.0032,-0.0081,-0.0128,-0.017,-0.0242,-0.0252,-0.0305,-0.0265,-0.0254,-0.011,-0.0151,-0.0147,-0.0144,-0.0142,-0.0141,-0.014,-0.0139,0.0077,0.0054,0.0009,-0.0096,-0.0201,-0.0278,-0.0392,-0.0438,-0.0431,-0.0474,-0.0332,-0.0312,-0.0312,-0.0469,-0.047,-0.047,-0.047,-0.047,-0.0471,0.0129,0.0071,0.0013,-0.0123,-0.0222,-0.036,-0.0493,-0.0518,-0.0533,-0.0485,-0.0508,-0.0343,-0.0332,-0.0327,-0.0474,-0.0474,-0.0473,-0.0473,-0.0473,0.0136,0.0137,0.003,-0.0055,-0.0292,-0.0414,-0.0533,-0.0543,-0.0553,-0.0508,-0.0456,-0.0456,-0.0352,-0.0339,-0.033,-0.0485,-0.0484,-0.0484,0,0.0186,0.0165,0.0062,-0.0091,-0.0284,-0.0439,-0.049,-0.0518,-0.0483,-0.0458,-0.0531,-0.0473,-0.0472,-0.0352,-0.0339,-0.0328,0,0,0,0.0195,0.0179,0.0118,-0.0027,-0.0279,-0.0407,-0.0502,-0.0481,-0.0493,-0.0471,-0.0468,-0.0472,-0.0489,-0.0486,-0.0322,-0.0309,-0.029,0,0]},{"header":{"parameterUnit":"m.s-1","parameterCategory":2,"la1":30.2992,"la2":30.254,"lo1":-89.0895,"lo2":-89.0443,"dy":0.0025,"dx":0.0025,"nx":19,"ny":19,"refTime":"2026-04-01T03:00:00:Z","depth":"4","parameterNumber":3,"parameterNumberName":"V-component_of_CURRENTS"},"data":[0,0,0,0.0005,0.0005,0.0035,0.0035,0.0163,0.0164,0,0,0,0,0,0,0,0,0,0,0,-0.0003,-0.0003,0.0005,0.0005,0.0035,0.0035,0.0162,0.0164,0,0,0,0,0,0,0,0,0,0,0,-0.0003,-0.0003,-0.0003,0.0005,0.0035,0.0035,0.0162,0.0119,0,0,0,0,0,0,0,0,0,0,0.0079,0.0053,-0.0003,-0.0003,0.0005,0.0035,0.0035,0.0116,0.0122,0.0173,0,0.0174,0,0.0171,0.0174,0.0174,0,0,0,0.0011,0.0048,0.0059,-0.0003,0.0005,0.0035,0.0023,0.0118,0.0125,0.0181,0.0175,0.0179,0.0173,0.0175,0.0176,0.0366,0.0367,0,0,0.0009,0.0004,0.0054,0.0063,0.0011,0.0022,0.0024,0.0121,0.0128,0.0176,0.0182,0.0175,0.0176,0.0177,0.0365,0.0366,0,0,0,0.0001,0.0003,0.0009,0.0058,0.0056,0.0023,0.0025,0.0124,0.0127,0.0183,0.0177,0.0177,0.0179,0.0364,0.0365,0.0344,0,0,0,-0.0,-0.0003,0.0009,0.0006,0.0054,0.0077,0.0025,0.012,0.013,0.0176,0.0177,0.018,0.0363,0.0365,0.0342,0.0295,0,0,0,-0.0004,-0.0003,-0.0001,0.0005,0.0015,0.0075,0.0083,0.0121,0.0127,0.0175,0.018,0.0362,0.0364,0.0341,0.0294,0.0277,0,0,0,-0.001,-0.001,-0.0001,0.0009,0.0015,0.0058,0.0082,0.0132,0.0174,0.0178,0.0363,0.0365,0.034,0.0294,0.0277,0.0233,0,0,0,-0.0015,-0.0011,-0.0002,0.0006,0.0029,0.0054,0.0128,0.0196,0.0231,0.0336,0.034,0.0343,0.0294,0.0277,0.0371,0,0,0,0,-0.0006,-0.0006,0.0007,0.0022,0.0058,0.0112,0.0182,0.0232,0.0323,0.0265,0.0396,0.0366,0.0355,0.0334,0.0376,0.0376,0.0376,0.0376,0.0375,-0.0012,0.0001,0.0007,0.0037,0.0082,0.0175,0.0232,0.0322,0.0362,0.0414,0.0389,0.0413,0.0399,0.0458,0.0458,0.0458,0.0458,0.0458,0.0457,-0.0028,-0.0038,0.0003,0.0008,0.0081,0.0154,0.029,0.0338,0.0415,0.0443,0.0434,0.0366,0.0457,0.0457,0.0457,0.0457,0.0457,0.0457,0.0457,-0.0053,-0.0066,-0.0056,-0.0041,0.0014,0.0118,0.017,0.0263,0.0362,0.0371,0.0342,0.0392,0.0344,0.0364,0.0363,0.0363,0.0363,0.0363,0.0362,-0.0102,-0.0097,-0.012,-0.0097,-0.0093,-0.0051,0.0073,0.0136,0.0244,0.0296,0.0344,0.0381,0.0384,0.0341,0.0359,0.0359,0.036,0.036,0.036,-0.0159,-0.0158,-0.0202,-0.0215,-0.0206,-0.0177,-0.0082,0.007,0.0123,0.0191,0.0271,0.0276,0.0266,0.0271,0.0223,0.0206,0.0206,0.0205,0,-0.0201,-0.0201,-0.0262,-0.0292,-0.0297,-0.0239,-0.0153,-0.0047,0.0093,0.0083,0.0116,0.0198,0.0206,0.0187,0.0192,0.0131,0,0,0,-0.0232,-0.0254,-0.0295,-0.0317,-0.0325,-0.0208,-0.0122,-0.0067,0.0056,0.0143,0.0191,0.0195,0.0281,0.0347,0.0344,0.0348,0.0277,0,0]}]]